User: anonymous   Login
Location: Unspecified
(0.0000°N, 0.0000°E)
Time: 08:39:43
(UTC+00:00)
Language:

Kosmos-1655 - Orbit

View from above orbital plane
View from above orbital plane
View from above satellite
View from above satellite

Ground track
Ground track

The orbit is defined by the following mean orbital elements,

1 15751U          26159.77182705 +.00000000 +00000-0 +45713-4 0 00006
2 15751  82.9496  72.8411 0027816 118.5938 295.4574 13.71936515    08
Epoch (UTC): 08 June 2026 18:31:25
Eccentricity: 0.0027816
inclination: 82.9496°
perigee height: 972 km
apogee height: 1013 km
right ascension of ascending node: 72.8411°
argument of perigee: 118.5938°
revolutions per day: 13.71936515
mean anomaly at epoch: 295.4574°

The dashed part of the orbit path shows where the satellite is in the earth's shadow,  

DLR